Regional Weather Roundup
Issued by NWS

Home | Current Version | Previous Version | Graphics & Text | Print | Product List | Glossary On
Versions: 1 2 3 4 5 6 7 8 9 10 11 12 13 14 15 16 17 18 19 20 21 22 23 24 25 26 27 28 29 30 31 32 33 34 35 36 37 38 39 40 41 42 43 44 45 46 47 48 49 50
000
ASUS43 KOAX 231102
RWRNE

WEATHER ROUNDUP FOR NEBRASKA
NATIONAL WEATHER SERVICE OMAHA NE
600 AM CDT TUE SEP 23 2014

NOTES: SATELLITE DATA IS BEING USED TO AUGMENT CLOUD COVER ABOVE
       12000 FEET.
       "FAIR" INDICATES FEW OR NO CLOUDS BELOW 12,000 FEET WITH NO
       SIGNIFICANT WEATHER AND/OR OBSTRUCTIONS TO VISIBILITY.

  * THESE STATIONS DO NOT REPORT WEATHER SUCH AS RAIN...SNOW OR FOG.

NEZ001>004-019>022-054>056-231200-
NEBRASKA PANHANDLE

CITY           SKY/WX    TMP DP  RH WIND       PRES   REMARKS
SCOTTSBLUFF    CLEAR     51  48  89 NW3       30.00S
ALLIANCE       PTCLDY    46  45  96 SW3       29.97S
CHADRON        PTCLDY    54  50  86 SW5       29.92S
KIMBALL        PTCLDY    53  48  83 W7        30.06R
SIDNEY         PTCLDY    57  54  89 SW10      30.04S
$$

NEZ057>060-069>072-079>082-231200-
SOUTHWEST NEBRASKA

CITY           SKY/WX    TMP DP  RH WIND       PRES   REMARKS
NORTH PLATTE   PTCLDY    57  55  93 SE9       30.03R
IMPERIAL       PTCLDY    58  54  86 S7        30.03S
LEXINGTON      CLOUDY    57  55  94 SE10      30.06F
MCCOOK         CLEAR     56  54  93 SE7       30.05F
OGALLALA       PTCLDY    54  53  99 S3        30.01S
$$

NEZ005>010-023>029-035>040-094-231200-
NORTH CENTRAL NEBRASKA

CITY           SKY/WX    TMP DP  RH WIND       PRES   REMARKS
VALENTINE      PTCLDY    55  53  93 S9        29.97F
AINSWORTH      MOCLDY    56  54  93 S15G21    29.99F
BROKEN BOW     CLOUDY    58  54  86 S12G23    30.06S
O`NEILL        RAIN      57  56  96 S13       30.07S
ORD            LGT RAIN  55  54  96 SE8       30.07S
THEDFORD       CLOUDY    56  55  96 SE7       30.01S
$$

NEZ041-046>049-061>064-073>077-083>087-231200-
SOUTH CENTRAL NEBRASKA

CITY           SKY/WX    TMP DP  RH WIND       PRES   REMARKS
GRAND ISLAND   LGT RAIN  57  54  89 S5        30.12R
AURORA         RAIN      57  55  91 S7        30.11R
HASTINGS       LGT RAIN  56  52  86 SW5       30.11R FOG
HEBRON         RAIN      57  53  86 SE9       30.13F
HOLDREGE       CLOUDY    56  54  92 CALM      30.07S
KEARNEY *      CLOUDY    55  52  88 E6        30.10S
YORK           LGT RAIN  57  55  94 S12       30.12F
$$

NEZ011>018-030>034-042>045-231200-
NORTHEAST NEBRASKA

CITY           SKY/WX    TMP DP  RH WIND       PRES   REMARKS
NORFOLK        LGT RAIN  57  55  93 S7        30.12F
ALBION         RAIN      56  54  94 SE8       30.11S
BLAIR          CLOUDY    61  53  73 S8        30.16S
COLUMBUS *     CLOUDY    57  52  82 S7        30.14S
FREMONT        CLOUDY    62  52  70 SE7       30.16R
TEKAMAH        CLOUDY    58  55  90 SE5       30.15S
WAYNE          RAIN      58  55  92 S6        30.13S
$$

NEZ050>053-065>068-078-088>093-231200-
SOUTHEAST NEBRASKA

CITY           SKY/WX    TMP DP  RH WIND       PRES   REMARKS
LINCOLN        CLOUDY    59  52  77 S8        30.16S
OMAHA EPPLEY   CLOUDY    61  52  72 S10       30.17S
BEATRICE       CLOUDY    59  52  77 S7        30.17S
FALLS CITY     CLOUDY    58  53  84 S6        30.19R
NEBRASKA CITY    N/A     58  49  72 S7        30.19R
PLATTSMOUTH    CLOUDY    57  53  84 SE7       30.18R
$$

NEZ044-045-051>053-067-231200-
OMAHA AREA

CITY           SKY/WX    TMP DP  RH WIND       PRES   REMARKS
OMAHA EPPLEY   CLOUDY    61  52  72 S10       30.17S
BLAIR          CLOUDY    61  53  73 S8        30.16S
FREMONT        CLOUDY    62  52  70 SE7       30.16R
MILLARD        CLOUDY    60  54  79 SE6       30.17R
OFFUTT AFB     CLOUDY    59  58  98 SE7       30.18R
PLATTSMOUTH    CLOUDY    57  53  84 SE7       30.18R
WAHOO          CLOUDY    59  52  79 SE7       30.15S
$$



USA.gov is the U.S. government's official web portal to all federal, state and local government web resources and services.